This is the latest recevied weather packets stored in our database for station/object KD4MBW. If no packets are shown the sender has not sent any weather packets the latest 10 day(s).
| Time | Temp. | Humidity | Pressure | Rain* | Wind** | Luminosity | Snow |
|---|---|---|---|---|---|---|---|
| 1787678025 | 31.67° C | 67% | 1016.7 hPa | 0 mm | - | 765 W/m² | - |
| 1787677725 | 31.67° C | 67% | 1016.7 hPa | 0 mm | - | 761 W/m² | - |
| 1787677419 | 31.67° C | 69% | 1017 hPa | 0 mm | - | 759 W/m² | - |
| 1787677118 | 31.67° C | 70% | 1016.8 hPa | 0 mm | - | 756 W/m² | - |
| 1787676814 | 31.67° C | 73% | 1017 hPa | 0 mm | - | 758 W/m² | - |
| 1787676508 | 31.67° C | 70% | 1016.9 hPa | 0 mm | - | 751 W/m² | - |
| 1787676207 | 31.67° C | 72% | 1017.1 hPa | 0 mm | - | 747 W/m² | - |
| 1787675905 | 31.11° C | 75% | 1017 hPa | 0 mm | - | 741 W/m² | - |
| 1787675602 | 31.11° C | 74% | 1017 hPa | 0 mm | - | 736 W/m² | - |
| 1787675301 | 31.11° C | 73% | 1017.2 hPa | 0 mm | - | 727 W/m² | - |
| 1787674995 | 31.11° C | 73% | 1017.2 hPa | 0 mm | - | 720 W/m² | - |
| 1787674691 | 30.56° C | 76% | 1017.1 hPa | 0 mm | - | 709 W/m² | - |
| 1787674387 | 30.56° C | 76% | 1017.3 hPa | 0 mm | - | 701 W/m² | - |
| 1787674086 | 30.56° C | 74% | 1017.3 hPa | 0 mm | - | 692 W/m² | - |
| 1787673781 | 30.56° C | 74% | 1017.4 hPa | 0 mm | - | 686 W/m² | - |
| 1787673480 | 30.56° C | 76% | 1017.5 hPa | 0 mm | - | 676 W/m² | - |
| 1787673175 | 30.56° C | 76% | 1017.7 hPa | 0 mm | - | 671 W/m² | - |
| 1787672874 | 30.56° C | 74% | 1017.7 hPa | 0 mm | - | 663 W/m² | - |
| 1787672571 | 30.56° C | 75% | 1017.6 hPa | 0 mm | - | 656 W/m² | - |
| 1787672269 | 30° C | 76% | 1017.7 hPa | 0 mm | - | 620 W/m² | - |
| 1787671964 | 30° C | 77% | 1017.8 hPa | 0 mm | - | 624 W/m² | - |
| 1787671660 | 30° C | 74% | 1017.9 hPa | 0 mm | - | 617 W/m² | - |
| 1787671360 | 30.56° C | 74% | 1017.6 hPa | 0 mm | - | 604 W/m² | - |
| 1787671055 | 30° C | 76% | 1017.8 hPa | 0 mm | - | 600 W/m² | - |
| 1787670751 | 30.56° C | 77% | 1017.6 hPa | 0 mm | - | 587 W/m² | - |
* Rain latest hour (hover to see other rain measurements)
** Current wind speed in m/s (hover to see current wind gust speed)